Weather History for Hayward, WI

Change the Weather History Date:

Tuesday, July 16, 2013

  Actual Average Record
Temperature  
Mean Temperature 78 °F -  
Max Temperature 91 °F 81 °F 100 °F (2006)
Min Temperature 64 °F 52 °F 46 °F (1996)
Cooling Degree Days 12    
Growing Degree Days 28 (Base 50)    
Moisture  
Dew Point 68 °F    
Average Humidity 69    
Maximum Humidity 93    
Minimum Humidity 45    
Precipitation  
Precipitation 0.00 in - - ()
Sea Level Pressure  
Sea Level Pressure 30.19 in    
Wind  
Wind Speed 4 mph (SSW)    
Max Wind Speed 12 mph    
Max Gust Speed 18 mph    
Visibility 10 miles    
Events      
Averages and records for this station are not official NWS values.
T = Trace of Precipitation, MM = Missing Value Source: NWS Daily Summary

Daily Weather History Graph

Daily Weather History Graph

Search for Another Location

Airport:

Trip Planner

Search our weather history database for the weather conditions in past years. The results will help you decide how hot, cold, wet, or windy it might be!

Date:

Astronomy

Jul. 16, 2013 Rise Set
Actual Time 5:30 AM CDT 8:52 PM CDT
Civil Twilight 4:54 AM CDT 9:29 PM CDT
Nautical Twilight 4:05 AM CDT 10:17 PM CDT
Astronomical Twilight 3:04 AM CDT 11:17 PM CDT
Moon 2:26 PM CDT (7/16) 12:10 AM CDT (7/16)
Length of Visible Light 16h 34m
Length of Day
15h 21m
First Quarter, 56% of the Moon is Illuminated
Jul 16
First Quarter
Jul 22
Full
Jul 29
Last Quarter
Aug 6
New
Aug 14
First Quarter

Hourly Weather History & Observations

Time (CDT) Temp. Heat Index Dew Point Humidity Pressure Visibility Wind Dir Wind Speed Gust Speed Precip Events Conditions
12:53 AM 64.9 °F - 63.0 °F 93% 30.21 in 7.0 mi Calm Calm - N/A   Partly Cloudy
1:53 AM 66.0 °F - 64.0 °F 93% 30.20 in 7.0 mi Calm Calm - N/A   Mostly Cloudy
2:53 AM 68.0 °F - 66.0 °F 93% 30.19 in 8.0 mi Calm Calm - N/A   Overcast
3:53 AM 73.9 °F - 68.0 °F 82% 30.19 in 10.0 mi South 4.6 mph - N/A   Mostly Cloudy
4:53 AM 73.9 °F - 69.1 °F 85% 30.19 in 10.0 mi South 3.5 mph - N/A   Scattered Clouds
5:53 AM 73.9 °F - 69.1 °F 85% 30.19 in 9.0 mi South 3.5 mph - N/A   Clear
6:53 AM 75.9 °F - 70.0 °F 82% 30.20 in 10.0 mi SSW 4.6 mph - N/A   Clear
7:53 AM 79.0 °F - 71.1 °F 77% 30.21 in 10.0 mi SSW 5.8 mph - N/A   Partly Cloudy
8:53 AM 81.0 °F 84.9 °F 71.1 °F 72% 30.22 in 10.0 mi SSW 6.9 mph 17.3 mph N/A   Scattered Clouds
9:53 AM 82.9 °F 87.5 °F 71.1 °F 67% 30.21 in 10.0 mi Variable 5.8 mph - N/A   Mostly Cloudy
10:53 AM 86.0 °F 90.7 °F 70.0 °F 59% 30.20 in 10.0 mi Variable 6.9 mph - N/A   Scattered Clouds
11:53 AM 87.1 °F 91.3 °F 69.1 °F 55% 30.20 in 10.0 mi Variable 5.8 mph - N/A   Mostly Cloudy
12:53 PM 90.0 °F 93.6 °F 68.0 °F 48% 30.19 in 10.0 mi SSW 9.2 mph 16.1 mph N/A   Partly Cloudy
1:53 PM 90.0 °F 93.6 °F 68.0 °F 48% 30.18 in 10.0 mi SSW 9.2 mph - N/A   Mostly Cloudy
2:53 PM 91.0 °F 95.2 °F 68.0 °F 47% 30.17 in 10.0 mi SSW 11.5 mph 18.4 mph N/A   Scattered Clouds
3:53 PM 90.0 °F 92.8 °F 66.9 °F 46% 30.17 in 10.0 mi SSW 10.4 mph 17.3 mph N/A   Scattered Clouds
4:53 PM 90.0 °F 92.4 °F 66.0 °F 45% 30.17 in 10.0 mi SW 8.1 mph - N/A   Partly Cloudy
5:53 PM 89.1 °F 91.3 °F 66.0 °F 46% 30.16 in 10.0 mi SW 9.2 mph - N/A   Partly Cloudy
6:53 PM 87.1 °F 89.2 °F 66.0 °F 49% 30.16 in 10.0 mi Variable 6.9 mph 16.1 mph N/A   Clear
7:53 PM 86.0 °F 88.8 °F 66.9 °F 53% 30.16 in 10.0 mi Variable 4.6 mph - N/A   Clear
8:53 PM 80.1 °F 82.9 °F 69.1 °F 69% 30.17 in 10.0 mi Calm Calm - N/A   Clear
9:53 PM 75.0 °F - 69.1 °F 82% 30.20 in 10.0 mi Calm Calm - N/A   Clear
10:53 PM 73.9 °F - 68.0 °F 82% 30.21 in 10.0 mi Calm Calm - N/A   Clear
11:53 PM 72.0 °F - 68.0 °F 87% 30.21 in 10.0 mi Calm Calm - N/A   Clear